[[{"header":{"parameterUnit":"m.s-1","parameterCategory":2,"la1":30.2992,"la2":30.254,"lo1":-89.0895,"lo2":-89.0443,"dy":0.0025,"dx":0.0025,"nx":19,"ny":19,"refTime":"2026-04-09T03:00:00:Z","depth":"0","parameterNumber":2,"parameterNumberName":"U-component_of_CURRENTS"},"data":[0,0,0,0.2528,0.253,0.2606,0.2607,0.2681,0.2681,0,0,0,0,0,0,0,0,0,0,0,0.2493,0.2494,0.2528,0.253,0.2606,0.2607,0.2681,0.2681,0,0,0,0,0,0,0,0,0,0,0,0.2493,0.2494,0.2494,0.2531,0.2606,0.2607,0.268,0.2626,0,0,0,0,0,0,0,0,0,0,0.2554,0.2521,0.2493,0.2494,0.2531,0.2606,0.2607,0.2624,0.263,0.2643,0,0.2658,0,0.268,0.2687,0.2687,0,0,0,0.2521,0.2516,0.2548,0.2494,0.2532,0.2606,0.2569,0.2627,0.2634,0.265,0.2659,0.2662,0.2681,0.2687,0.2688,0.2796,0.2797,0,0,0.2516,0.2495,0.2544,0.2553,0.2556,0.2567,0.2572,0.2631,0.2632,0.2659,0.2664,0.2682,0.2688,0.2688,0.2795,0.2796,0,0,0,0.2511,0.2492,0.2523,0.2549,0.257,0.2569,0.2575,0.2629,0.2644,0.2665,0.2683,0.2688,0.2689,0.2795,0.2796,0.2841,0,0,0,0.2508,0.249,0.2521,0.2508,0.2569,0.2603,0.2571,0.2639,0.2647,0.2683,0.2688,0.269,0.2794,0.2795,0.2838,0.2849,0,0,0,0.2489,0.2488,0.2501,0.2507,0.2547,0.2602,0.2619,0.2641,0.2658,0.2687,0.269,0.2794,0.2795,0.2836,0.2845,0.2916,0,0,0,0.2459,0.2475,0.25,0.2531,0.2546,0.2615,0.2619,0.266,0.2685,0.2689,0.2794,0.2796,0.2835,0.2843,0.2913,0.291,0.2924,0,0,0.2462,0.2475,0.2497,0.2522,0.2582,0.2604,0.2678,0.2705,0.2712,0.277,0.2772,0.2839,0.2845,0.2915,0.2991,0.3002,0,0,0,0.2488,0.2503,0.2526,0.257,0.2623,0.2682,0.2719,0.2753,0.281,0.2738,0.2855,0.2858,0.29,0.2893,0.2902,0.2892,0.2802,0.2802,0.2802,0.245,0.25,0.2534,0.2602,0.2657,0.2741,0.2797,0.2851,0.2851,0.289,0.2907,0.3005,0.2998,0.3005,0.2994,0.2926,0.2926,0.2926,0.2926,0.2449,0.2466,0.2542,0.259,0.2674,0.2745,0.2879,0.2908,0.3014,0.2979,0.3019,0.2955,0.3017,0.3002,0.2929,0.2929,0.2928,0.2928,0.2928,0.2408,0.2421,0.2458,0.2539,0.2626,0.2741,0.2859,0.2961,0.3042,0.3091,0.3103,0.3101,0.3079,0.3121,0.3122,0.3122,0.3122,0.3123,0.3123,0.2335,0.2378,0.2398,0.249,0.2537,0.266,0.285,0.2952,0.3104,0.3154,0.3154,0.3115,0.3065,0.3046,0.3129,0.3128,0.3127,0.3126,0.3126,0.2279,0.2296,0.2326,0.236,0.247,0.2526,0.2748,0.297,0.3113,0.3185,0.3222,0.3201,0.319,0.3182,0.3167,0.3275,0.3275,0.3275,0.3275,0.2221,0.2241,0.2248,0.2275,0.2351,0.2458,0.2569,0.28,0.3093,0.3202,0.3279,0.3222,0.3217,0.3204,0.3195,0.3179,0.3288,0.3288,0.3288,0.2177,0.2195,0.2167,0.2202,0.2264,0.2357,0.239,0.2562,0.302,0.3288,0.327,0.327,0.3183,0.3174,0.3146,0.3134,0.3103,0,0]},{"header":{"parameterUnit":"m.s-1","parameterCategory":2,"la1":30.2992,"la2":30.254,"lo1":-89.0895,"lo2":-89.0443,"dy":0.0025,"dx":0.0025,"nx":19,"ny":19,"refTime":"2026-04-09T03:00:00:Z","depth":"0","parameterNumber":3,"parameterNumberName":"V-component_of_CURRENTS"},"data":[0,0,0,0.0061,0.0061,0.0017,0.0016,-0.0066,-0.0067,0,0,0,0,0,0,0,0,0,0,0,0.0077,0.0077,0.0061,0.0061,0.0017,0.0016,-0.0066,-0.0067,0,0,0,0,0,0,0,0,0,0,0,0.0077,0.0077,0.0077,0.0061,0.0017,0.0016,-0.0066,-0.0029,0,0,0,0,0,0,0,0,0,0,0.0016,0.004,0.0077,0.0077,0.006,0.0017,0.0016,-0.0027,-0.0031,-0.005,0,-0.005,0,-0.0056,-0.0072,-0.0072,0,0,0,0.005,0.0044,0.0032,0.0077,0.006,0.0017,0.0033,-0.0029,-0.0034,-0.0056,-0.0051,-0.0054,-0.0058,-0.0073,-0.0073,-0.0091,-0.0091,0,0,0.0052,0.0065,0.0036,0.0029,0.0058,0.0035,0.0032,-0.0032,-0.0034,-0.0051,-0.0056,-0.0059,-0.0073,-0.0074,-0.0091,-0.0091,0,0,0,0.0067,0.0067,0.0057,0.0033,0.0029,0.0034,0.0031,-0.0031,-0.0034,-0.0056,-0.006,-0.0074,-0.0075,-0.0092,-0.0091,0.0016,0,0,0,0.0068,0.0076,0.0058,0.0065,0.0031,0.0003,0.0033,-0.003,-0.0037,-0.006,-0.0074,-0.0075,-0.0092,-0.0091,0.0012,0.0078,0,0,0,0.0077,0.0077,0.0075,0.0066,0.0051,0.0004,-0.0004,-0.0031,-0.0039,-0.0073,-0.0076,-0.0092,-0.0092,0.0009,0.0071,0.0132,0,0,0,0.0087,0.0113,0.0075,0.0104,0.0052,0.0061,-0.0003,-0.0013,-0.0034,-0.0074,-0.0092,-0.0091,0.0008,0.0067,0.0127,0.0238,0.0267,0,0,0.0131,0.0118,0.0137,0.0103,0.0138,0.0066,0.0095,0.0031,-0.003,-0.0076,-0.0077,0.0013,0.007,0.0131,0.029,0.0318,0,0,0,0.0159,0.0177,0.018,0.0187,0.017,0.0171,0.0103,0.0069,0.0027,-0.0037,0.0002,0.0034,0.0069,0.0126,0.0148,0.0038,-0.0087,-0.0087,-0.0087,0.024,0.0234,0.0278,0.0274,0.0277,0.0236,0.0229,0.0169,0.0091,0.0088,0.0112,0.0221,0.0282,0.03,0.0184,0.009,0.0091,0.0091,0.0091,0.0331,0.0364,0.0359,0.0396,0.0384,0.0396,0.0346,0.0295,0.0282,0.0196,0.0224,0.0224,0.0331,0.0198,0.0098,0.0097,0.0096,0.0095,0.0095,0.0391,0.041,0.0421,0.0479,0.0521,0.0497,0.0569,0.049,0.0394,0.0423,0.0461,0.046,0.0352,0.043,0.043,0.0431,0.0431,0.0432,0.0432,0.0446,0.0465,0.0522,0.0571,0.0623,0.0694,0.0691,0.0704,0.0669,0.0602,0.0602,0.0386,0.0324,0.0321,0.0441,0.044,0.0438,0.0438,0.0437,0.0529,0.0526,0.0625,0.068,0.0814,0.0966,0.0949,0.101,0.0972,0.0987,0.067,0.0688,0.0667,0.0648,0.0652,0.0851,0.0851,0.0851,0.0851,0.0582,0.0588,0.0722,0.0837,0.0988,0.1093,0.1303,0.1317,0.1084,0.093,0.0774,0.0698,0.0686,0.0658,0.064,0.0638,0.083,0.0829,0.0829,0.0646,0.0678,0.0786,0.0888,0.1061,0.1259,0.1478,0.1572,0.1172,0.0808,0.06,0.0601,0.0461,0.0451,0.0377,0.036,0.0346,0,0]}],[{"header":{"parameterUnit":"m.s-1","parameterCategory":2,"la1":30.2992,"la2":30.254,"lo1":-89.0895,"lo2":-89.0443,"dy":0.0025,"dx":0.0025,"nx":19,"ny":19,"refTime":"2026-04-09T03:00:00:Z","depth":"2","parameterNumber":2,"parameterNumberName":"U-component_of_CURRENTS"},"data":[0,0,0,0.2391,0.2392,0.2467,0.2467,0.2538,0.2538,0,0,0,0,0,0,0,0,0,0,0,0.236,0.2361,0.2391,0.2393,0.2467,0.2467,0.2538,0.2538,0,0,0,0,0,0,0,0,0,0,0,0.236,0.2361,0.2361,0.2393,0.2467,0.2467,0.2538,0.2486,0,0,0,0,0,0,0,0,0,0,0.2416,0.239,0.236,0.2361,0.2393,0.2467,0.2467,0.2484,0.2489,0.25,0,0.2515,0,0.2534,0.2543,0.2544,0,0,0,0.2386,0.2386,0.2412,0.2361,0.2394,0.2466,0.2431,0.2487,0.2493,0.2507,0.2516,0.2519,0.2535,0.2544,0.2544,0.2643,0.2643,0,0,0.2382,0.2367,0.2408,0.2416,0.2419,0.2429,0.2434,0.2491,0.2495,0.2517,0.2521,0.2536,0.2544,0.2545,0.2642,0.2643,0,0,0,0.2375,0.2364,0.2389,0.2413,0.2431,0.2431,0.2437,0.2492,0.2503,0.2522,0.2537,0.2545,0.2545,0.2642,0.2642,0.2684,0,0,0,0.2372,0.2361,0.2387,0.2378,0.243,0.2466,0.2437,0.2499,0.2506,0.2537,0.2545,0.2546,0.2641,0.2642,0.2682,0.2693,0,0,0,0.2356,0.2359,0.237,0.2377,0.2414,0.2465,0.2479,0.2501,0.2516,0.2544,0.2546,0.2641,0.2642,0.268,0.269,0.2755,0,0,0,0.2333,0.2349,0.237,0.2398,0.2413,0.2474,0.2479,0.252,0.2545,0.2545,0.2641,0.2642,0.2679,0.2688,0.2753,0.2707,0.2716,0,0,0.2338,0.2349,0.2368,0.2389,0.244,0.2463,0.253,0.2561,0.2569,0.2618,0.2621,0.2683,0.269,0.2755,0.2781,0.2787,0,0,0,0.236,0.2373,0.2393,0.2431,0.2478,0.2532,0.257,0.2599,0.2654,0.2593,0.2697,0.27,0.274,0.2707,0.2713,0.2648,0.2648,0.2648,0.2648,0.2331,0.2372,0.2402,0.2458,0.2509,0.2586,0.2638,0.2686,0.2689,0.2725,0.2746,0.2837,0.2802,0.2805,0.2762,0.2762,0.2762,0.2762,0.2762,0.2328,0.2341,0.2409,0.2451,0.2526,0.2593,0.2709,0.2738,0.2837,0.2805,0.2842,0.2766,0.2814,0.2766,0.2765,0.2765,0.2765,0.2764,0.2764,0.229,0.2301,0.2337,0.2409,0.2491,0.2596,0.2701,0.2794,0.2866,0.2914,0.2899,0.2897,0.2864,0.2945,0.2946,0.2946,0.2946,0.2947,0.2947,0.2224,0.2263,0.2283,0.2368,0.2414,0.2528,0.27,0.2789,0.2908,0.2943,0.2943,0.2899,0.2893,0.2876,0.2952,0.2951,0.2951,0.295,0.295,0.2169,0.2187,0.2214,0.2247,0.2351,0.2393,0.2592,0.2765,0.2895,0.2942,0.297,0.2967,0.2954,0.2947,0.2932,0.3019,0.3019,0.3019,0.3019,0.2115,0.2133,0.214,0.2166,0.2231,0.2323,0.238,0.2526,0.2742,0.2804,0.2813,0.2734,0.2737,0.2706,0.2705,0.2683,0.2705,0.2704,0.2703,0.2074,0.2089,0.2064,0.2096,0.2149,0.2213,0.2185,0.2188,0.2408,0.2684,0.2689,0.3011,0.2917,0.2913,0.288,0.2873,0.2843,0,0]},{"header":{"parameterUnit":"m.s-1","parameterCategory":2,"la1":30.2992,"la2":30.254,"lo1":-89.0895,"lo2":-89.0443,"dy":0.0025,"dx":0.0025,"nx":19,"ny":19,"refTime":"2026-04-09T03:00:00:Z","depth":"2","parameterNumber":3,"parameterNumberName":"V-component_of_CURRENTS"},"data":[0,0,0,0.0073,0.0073,0.0032,0.0032,-0.0034,-0.0034,0,0,0,0,0,0,0,0,0,0,0,0.0088,0.0087,0.0073,0.0073,0.0032,0.0032,-0.0033,-0.0034,0,0,0,0,0,0,0,0,0,0,0,0.0088,0.0087,0.0087,0.0073,0.0032,0.0032,-0.0033,-0.0002,0,0,0,0,0,0,0,0,0,0,0.0038,0.0058,0.0088,0.0087,0.0073,0.0033,0.0032,-0.0,-0.0004,-0.0016,0,-0.0016,0,-0.0023,-0.0038,-0.0038,0,0,0,0.0063,0.0061,0.0051,0.0087,0.0072,0.0033,0.0048,-0.0002,-0.0006,-0.0021,-0.0017,-0.0019,-0.0024,-0.0038,-0.0039,-0.0041,-0.0041,0,0,0.0066,0.0077,0.0054,0.0049,0.007,0.0049,0.0047,-0.0004,-0.0006,-0.0017,-0.0021,-0.0025,-0.0039,-0.0039,-0.0042,-0.0041,0,0,0,0.0078,0.0078,0.0069,0.0051,0.0047,0.0048,0.0045,-0.0004,-0.0006,-0.0022,-0.0026,-0.0039,-0.004,-0.0042,-0.0041,0.0052,0,0,0,0.0079,0.0086,0.007,0.0076,0.0048,0.0024,0.0048,-0.0003,-0.0009,-0.0025,-0.0039,-0.004,-0.0042,-0.0042,0.0048,0.0106,0,0,0,0.0088,0.0087,0.0085,0.0077,0.0064,0.0024,0.0018,-0.0004,-0.0011,-0.0038,-0.004,-0.0043,-0.0042,0.0045,0.01,0.0142,0,0,0,0.0096,0.0119,0.0086,0.0112,0.0064,0.0077,0.0019,0.0012,-0.0005,-0.0039,-0.0042,-0.0041,0.0044,0.0096,0.0138,0.0204,0.0227,0,0,0.0135,0.0124,0.0142,0.0112,0.0147,0.0081,0.0112,0.0057,0.0004,-0.003,-0.003,0.0049,0.0099,0.0141,0.0259,0.0281,0,0,0,0.0162,0.0178,0.0182,0.0191,0.0179,0.0182,0.0123,0.0094,0.006,-0.0001,0.0042,0.0071,0.0095,0.0126,0.0143,-0.0037,-0.0037,-0.0037,-0.0037,0.0232,0.023,0.0272,0.0273,0.0278,0.0245,0.0239,0.0188,0.0122,0.0119,0.0141,0.0232,0.0267,0.028,0.0125,0.0125,0.0125,0.0126,0.0126,0.0314,0.0345,0.0346,0.0382,0.0376,0.0392,0.0349,0.0303,0.029,0.0219,0.0236,0.0216,0.0304,0.0133,0.0132,0.0131,0.013,0.0129,0.0129,0.0366,0.0384,0.0398,0.0456,0.0497,0.0481,0.0544,0.0475,0.0386,0.0408,0.0414,0.0412,0.0296,0.0407,0.0408,0.0408,0.0409,0.0409,0.0409,0.0411,0.0432,0.0485,0.0536,0.0587,0.0652,0.065,0.0655,0.0602,0.0534,0.0534,0.0327,0.0317,0.0311,0.0416,0.0415,0.0414,0.0414,0.0413,0.0483,0.0483,0.0573,0.0626,0.0753,0.0878,0.0863,0.0884,0.0843,0.0835,0.0595,0.0589,0.0565,0.0551,0.0549,0.071,0.071,0.071,0.071,0.0528,0.0535,0.0656,0.0761,0.0898,0.0984,0.1127,0.1089,0.0939,0.0814,0.0809,0.0759,0.0745,0.0727,0.0708,0.0707,0.0909,0.0909,0.091,0.0583,0.0612,0.0707,0.0802,0.0958,0.1115,0.1248,0.1218,0.099,0.0914,0.0806,0.0731,0.0641,0.0626,0.0577,0.0556,0.0546,0,0]}],[{"header":{"parameterUnit":"m.s-1","parameterCategory":2,"la1":30.2992,"la2":30.254,"lo1":-89.0895,"lo2":-89.0443,"dy":0.0025,"dx":0.0025,"nx":19,"ny":19,"refTime":"2026-04-09T03:00:00:Z","depth":"4","parameterNumber":2,"parameterNumberName":"U-component_of_CURRENTS"},"data":[0,0,0,0.1716,0.1719,0.1867,0.1868,0.1978,0.1979,0,0,0,0,0,0,0,0,0,0,0,0.1672,0.1673,0.1716,0.172,0.1867,0.1868,0.1978,0.1979,0,0,0,0,0,0,0,0,0,0,0,0.1671,0.1673,0.1674,0.172,0.1867,0.1868,0.1978,0.1886,0,0,0,0,0,0,0,0,0,0,0.1752,0.1728,0.1672,0.1674,0.1721,0.1867,0.1868,0.1882,0.1891,0.1889,0,0.1926,0,0.1952,0.1985,0.1985,0,0,0,0.1718,0.172,0.1754,0.1674,0.1722,0.1867,0.18,0.1888,0.1898,0.1901,0.1927,0.1932,0.1954,0.1985,0.1986,0.2095,0.2095,0,0,0.171,0.17,0.1748,0.1761,0.1777,0.1795,0.1805,0.1895,0.1914,0.1928,0.1935,0.1955,0.1986,0.1986,0.2094,0.2095,0,0,0,0.1688,0.1694,0.1729,0.1756,0.1788,0.18,0.1811,0.191,0.1921,0.1936,0.1957,0.1986,0.1987,0.2094,0.2095,0.2139,0,0,0,0.1683,0.1681,0.1725,0.172,0.1787,0.1863,0.1823,0.1915,0.1926,0.1956,0.1986,0.1988,0.2093,0.2094,0.2136,0.2147,0,0,0,0.1662,0.1679,0.17,0.172,0.1783,0.1862,0.1879,0.1918,0.1938,0.1985,0.1988,0.2093,0.2094,0.2134,0.2144,0.2201,0,0,0,0.1639,0.1668,0.17,0.1745,0.1782,0.186,0.1879,0.195,0.1994,0.1987,0.2093,0.2095,0.2133,0.2141,0.2198,0.1932,0,0,0,0.1652,0.167,0.1694,0.1725,0.1788,0.1839,0.1921,0.1989,0.2011,0.2056,0.206,0.2137,0.2143,0.22,0.2012,0,0,0,0,0.1682,0.1701,0.1726,0.178,0.1839,0.1915,0.1984,0.2022,0.2102,0.2044,0.2152,0.2154,0.2189,0.2026,0.2101,0.2101,0.2101,0.21,0.21,0.1667,0.1705,0.1748,0.1809,0.1873,0.1977,0.2043,0.2109,0.2127,0.2177,0.2202,0.2288,0.2118,0.2219,0.2219,0.2219,0.2219,0.2219,0.222,0.1663,0.1678,0.1759,0.1817,0.1908,0.1996,0.2116,0.2161,0.227,0.2255,0.2287,0.2097,0.2224,0.2223,0.2223,0.2222,0.2222,0.2221,0.2221,0.1622,0.1633,0.1696,0.179,0.19,0.2018,0.2119,0.2226,0.2306,0.2355,0.2208,0.2328,0.2313,0.2393,0.2394,0.2394,0.2394,0.2394,0.2395,0.1541,0.1601,0.1649,0.1762,0.1832,0.1956,0.2137,0.2204,0.2318,0.223,0.2387,0.2347,0.2341,0.2324,0.24,0.2399,0.2398,0.2398,0.2397,0.1465,0.1513,0.1564,0.1628,0.1763,0.1826,0.2032,0.2102,0.2165,0.2148,0.2163,0.2173,0.2136,0.2136,0.2109,0.2124,0.2121,0.2118,0,0.1404,0.1433,0.1486,0.154,0.1597,0.1734,0.1753,0.1864,0.1968,0.1902,0.2171,0.2185,0.2191,0.2145,0.214,0.2106,0,0,0,0.1354,0.1382,0.1386,0.1455,0.1499,0.1584,0.1744,0.1719,0.1954,0.1929,0.2039,0.206,0.2261,0.2414,0.2382,0.2375,0.2345,0,0]},{"header":{"parameterUnit":"m.s-1","parameterCategory":2,"la1":30.2992,"la2":30.254,"lo1":-89.0895,"lo2":-89.0443,"dy":0.0025,"dx":0.0025,"nx":19,"ny":19,"refTime":"2026-04-09T03:00:00:Z","depth":"4","parameterNumber":3,"parameterNumberName":"V-component_of_CURRENTS"},"data":[0,0,0,0.0094,0.0094,0.0067,0.0067,0.0023,0.0023,0,0,0,0,0,0,0,0,0,0,0,0.0104,0.0104,0.0094,0.0094,0.0067,0.0067,0.0024,0.0023,0,0,0,0,0,0,0,0,0,0,0,0.0104,0.0104,0.0104,0.0094,0.0067,0.0067,0.0024,0.0044,0,0,0,0,0,0,0,0,0,0,0.0071,0.0084,0.0104,0.0104,0.0094,0.0067,0.0067,0.0045,0.0043,0.0035,0,0.0036,0,0.0031,0.0021,0.002,0,0,0,0.0087,0.0086,0.008,0.0104,0.0093,0.0067,0.0077,0.0044,0.0041,0.0032,0.0035,0.0034,0.0031,0.002,0.002,0.0028,0.0028,0,0,0.0088,0.0096,0.0082,0.0078,0.0093,0.0078,0.0077,0.0043,0.0042,0.0035,0.0033,0.003,0.002,0.002,0.0028,0.0028,0,0,0,0.0097,0.0097,0.0091,0.008,0.0077,0.0078,0.0076,0.0044,0.0042,0.0032,0.0029,0.002,0.0019,0.0027,0.0028,0.01,0,0,0,0.0098,0.0103,0.0092,0.0096,0.0078,0.0062,0.0078,0.0044,0.004,0.003,0.002,0.0019,0.0027,0.0027,0.0097,0.0143,0,0,0,0.0104,0.0104,0.0103,0.0097,0.0089,0.0062,0.0058,0.0043,0.0039,0.002,0.0019,0.0026,0.0027,0.0094,0.0138,0.0159,0,0,0,0.0109,0.0127,0.0103,0.0124,0.0089,0.0104,0.0058,0.0057,0.0046,0.002,0.0027,0.0028,0.0093,0.0135,0.0156,0.0174,0,0,0,0.0138,0.013,0.0145,0.0124,0.0155,0.0106,0.0135,0.0095,0.0056,0.0035,0.0035,0.0098,0.0137,0.0158,0.0224,0,0,0,0,0.0159,0.0172,0.0177,0.0188,0.0183,0.0189,0.0148,0.0127,0.0105,0.0054,0.0095,0.0118,0.0129,0.0131,0.0032,0.0032,0.0032,0.0032,0.0031,0.0207,0.021,0.0246,0.0253,0.0262,0.0242,0.024,0.0203,0.0155,0.0155,0.0174,0.0239,0.0244,0.0162,0.0163,0.0163,0.0163,0.0163,0.0164,0.0266,0.0291,0.0302,0.0336,0.0339,0.0359,0.033,0.0296,0.0286,0.0237,0.0243,0.0204,0.0171,0.0169,0.0168,0.0167,0.0167,0.0166,0.0166,0.0299,0.0314,0.0334,0.039,0.0434,0.0431,0.0479,0.0431,0.036,0.0375,0.0351,0.0286,0.0282,0.0368,0.0368,0.0369,0.0369,0.0369,0.0369,0.0322,0.0346,0.0395,0.0449,0.0499,0.0555,0.0562,0.0556,0.0484,0.0447,0.0395,0.0307,0.0301,0.0293,0.0374,0.0373,0.0373,0.0372,0.0372,0.0361,0.0371,0.0448,0.0499,0.0612,0.0659,0.067,0.0638,0.0627,0.0578,0.047,0.0464,0.0438,0.0428,0.0424,0.0547,0.0548,0.0548,0,0.0385,0.0395,0.0496,0.0586,0.0685,0.0719,0.0743,0.0723,0.0622,0.0608,0.0601,0.048,0.0474,0.0444,0.0436,0.0432,0,0,0,0.0416,0.0442,0.0515,0.0601,0.0713,0.074,0.0751,0.0727,0.0642,0.063,0.0562,0.0558,0.0482,0.0388,0.0333,0.0325,0.031,0,0]}]]